Year,Month,Day,Hour,Minute,Value (Times are PST for temperature in C)
2017,07,31,00,00,14.70
2017,07,31,00,01,14.70
2017,07,31,00,02,14.60
2017,07,31,00,03,14.60
2017,07,31,00,04,14.60
2017,07,31,00,05,14.60
2017,07,31,00,06,14.60
2017,07,31,00,07,14.70
2017,07,31,00,08,14.70
2017,07,31,00,09,14.70
2017,07,31,00,10,14.70
2017,07,31,00,11,14.70
2017,07,31,00,12,14.70
2017,07,31,00,13,14.70
2017,07,31,00,14,14.70
2017,07,31,00,15,14.70
2017,07,31,00,16,14.70
2017,07,31,00,17,14.70
2017,07,31,00,18,14.70
2017,07,31,00,19,14.70
2017,07,31,00,20,14.70
2017,07,31,00,21,14.70
2017,07,31,00,22,14.70
2017,07,31,00,23,14.70
2017,07,31,00,24,14.60
2017,07,31,00,25,14.60
2017,07,31,00,26,14.60
2017,07,31,00,27,14.60
2017,07,31,00,28,14.60
2017,07,31,00,29,14.60
2017,07,31,00,30,14.60
2017,07,31,00,31,14.60
2017,07,31,00,32,14.50
2017,07,31,00,33,14.50
2017,07,31,00,34,14.50
2017,07,31,00,35,14.50
2017,07,31,00,36,14.50
2017,07,31,00,37,14.40
2017,07,31,00,38,14.40
2017,07,31,00,39,14.40
2017,07,31,00,40,14.40
2017,07,31,00,41,14.40
2017,07,31,00,42,14.40
2017,07,31,00,43,14.30
2017,07,31,00,44,14.30
2017,07,31,00,45,14.30
2017,07,31,00,46,14.30
2017,07,31,00,47,14.30
2017,07,31,00,48,14.20
2017,07,31,00,49,14.20
2017,07,31,00,50,14.20
2017,07,31,00,51,14.20
2017,07,31,00,52,14.20
2017,07,31,00,53,14.20
2017,07,31,00,54,14.20
2017,07,31,00,55,14.20
2017,07,31,00,56,14.10
2017,07,31,00,57,14.10
2017,07,31,00,58,14.10
2017,07,31,00,59,14.10
2017,07,31,01,00,14.00
2017,07,31,01,01,14.00
2017,07,31,01,02,14.00
2017,07,31,01,03,14.00
2017,07,31,01,04,13.90
2017,07,31,01,05,13.90
2017,07,31,01,06,13.90
2017,07,31,01,07,13.90
2017,07,31,01,08,13.90
2017,07,31,01,09,13.90
2017,07,31,01,10,13.90
2017,07,31,01,11,13.90
2017,07,31,01,12,13.90
2017,07,31,01,13,13.90
2017,07,31,01,14,13.80
2017,07,31,01,15,13.80
2017,07,31,01,16,13.80
2017,07,31,01,17,13.80
2017,07,31,01,18,13.80
2017,07,31,01,19,13.80
2017,07,31,01,20,13.80
2017,07,31,01,21,13.80
2017,07,31,01,22,13.80
2017,07,31,01,23,13.80
2017,07,31,01,24,13.80
2017,07,31,01,25,13.80
2017,07,31,01,26,13.80
2017,07,31,01,27,13.80
2017,07,31,01,28,13.70
2017,07,31,01,29,13.70
2017,07,31,01,30,13.70
2017,07,31,01,31,13.70
2017,07,31,01,32,13.70
2017,07,31,01,33,13.70
2017,07,31,01,34,13.70
2017,07,31,01,35,13.70
2017,07,31,01,36,13.70
2017,07,31,01,37,13.70
2017,07,31,01,38,13.70
2017,07,31,01,39,13.70
2017,07,31,01,40,13.60
2017,07,31,01,41,13.60
2017,07,31,01,42,13.60
2017,07,31,01,43,13.60
2017,07,31,01,44,13.60
2017,07,31,01,45,13.60
2017,07,31,01,46,13.60
2017,07,31,01,47,13.60
2017,07,31,01,48,13.60
2017,07,31,01,49,13.60
2017,07,31,01,50,13.60
2017,07,31,01,51,13.60
2017,07,31,01,52,13.60
2017,07,31,01,53,13.60
2017,07,31,01,54,13.60
2017,07,31,01,55,13.60
2017,07,31,01,56,13.60
2017,07,31,01,57,13.60
2017,07,31,01,58,13.60
2017,07,31,01,59,13.60
2017,07,31,02,00,13.60
2017,07,31,02,01,13.60
2017,07,31,02,02,13.60
2017,07,31,02,03,13.60
2017,07,31,02,04,13.60
2017,07,31,02,05,13.60
2017,07,31,02,06,13.60
2017,07,31,02,07,13.60
2017,07,31,02,08,13.60
2017,07,31,02,09,13.60
2017,07,31,02,10,13.60
2017,07,31,02,11,13.60
2017,07,31,02,12,13.60
2017,07,31,02,13,13.60
2017,07,31,02,14,13.60
2017,07,31,02,15,13.60
2017,07,31,02,16,13.60
2017,07,31,02,17,13.60
2017,07,31,02,18,13.60
2017,07,31,02,19,13.60
2017,07,31,02,20,13.60
2017,07,31,02,21,13.50
2017,07,31,02,22,13.50
2017,07,31,02,23,13.50
2017,07,31,02,24,13.50
2017,07,31,02,25,13.50
2017,07,31,02,26,13.50
2017,07,31,02,27,13.50
2017,07,31,02,28,13.50
2017,07,31,02,29,13.50
2017,07,31,02,30,13.50
2017,07,31,02,31,13.40
2017,07,31,02,32,13.40
2017,07,31,02,33,13.40
2017,07,31,02,34,13.40
2017,07,31,02,35,13.40
2017,07,31,02,36,13.40
2017,07,31,02,37,13.40
2017,07,31,02,38,13.40
2017,07,31,02,39,13.40
2017,07,31,02,40,13.40
2017,07,31,02,41,13.40
2017,07,31,02,42,13.40
2017,07,31,02,43,13.40
2017,07,31,02,44,13.40
2017,07,31,02,45,13.40
2017,07,31,02,46,13.40
2017,07,31,02,47,13.40
2017,07,31,02,48,13.40
2017,07,31,02,49,13.40
2017,07,31,02,50,13.40
2017,07,31,02,51,13.40
2017,07,31,02,52,13.40
2017,07,31,02,53,13.40
2017,07,31,02,54,13.30
2017,07,31,02,55,13.30
2017,07,31,02,56,13.30
2017,07,31,02,57,13.30
2017,07,31,02,58,13.30
2017,07,31,02,59,13.30
2017,07,31,03,00,13.30
2017,07,31,03,01,13.30
2017,07,31,03,02,13.30
2017,07,31,03,03,13.30
2017,07,31,03,04,13.20
2017,07,31,03,05,13.20
2017,07,31,03,06,13.20
2017,07,31,03,07,13.20
2017,07,31,03,08,13.20
2017,07,31,03,09,13.20
2017,07,31,03,10,13.20
2017,07,31,03,11,13.20
2017,07,31,03,12,13.20
2017,07,31,03,13,13.20
2017,07,31,03,14,13.20
2017,07,31,03,15,13.10
2017,07,31,03,16,13.10
2017,07,31,03,17,13.10
2017,07,31,03,18,13.10
2017,07,31,03,19,13.10
2017,07,31,03,20,13.10
2017,07,31,03,21,13.10
2017,07,31,03,22,13.10
2017,07,31,03,23,13.10
2017,07,31,03,24,13.10
2017,07,31,03,25,13.10
2017,07,31,03,26,13.20
2017,07,31,03,27,13.20
2017,07,31,03,28,13.20
2017,07,31,03,29,13.20
2017,07,31,03,30,13.20
2017,07,31,03,31,13.20
2017,07,31,03,32,13.30
2017,07,31,03,33,13.30
2017,07,31,03,34,13.30
2017,07,31,03,35,13.30
2017,07,31,03,36,13.30
2017,07,31,03,37,13.30
2017,07,31,03,38,13.20
2017,07,31,03,39,13.20
2017,07,31,03,40,13.20
2017,07,31,03,41,13.20
2017,07,31,03,42,13.20
2017,07,31,03,43,13.10
2017,07,31,03,44,13.10
2017,07,31,03,45,13.10
2017,07,31,03,46,13.10
2017,07,31,03,47,13.10
2017,07,31,03,48,13.00
2017,07,31,03,49,13.00
2017,07,31,03,50,13.00
2017,07,31,03,51,13.00
2017,07,31,03,52,13.00
2017,07,31,03,53,13.00
2017,07,31,03,54,13.00
2017,07,31,03,55,13.00
2017,07,31,03,56,13.00
2017,07,31,03,57,12.90
2017,07,31,03,58,12.90
2017,07,31,03,59,12.90
2017,07,31,04,00,12.90
2017,07,31,04,01,12.90
2017,07,31,04,02,12.90
2017,07,31,04,03,12.90
2017,07,31,04,04,12.80
2017,07,31,04,05,12.80
2017,07,31,04,06,12.80
2017,07,31,04,07,12.80
2017,07,31,04,08,12.80
2017,07,31,04,09,12.80
2017,07,31,04,10,12.80
2017,07,31,04,11,12.80
2017,07,31,04,12,12.80
2017,07,31,04,13,12.80
2017,07,31,04,14,12.80
2017,07,31,04,15,12.80
2017,07,31,04,16,12.80
2017,07,31,04,17,12.70
2017,07,31,04,18,12.70
2017,07,31,04,19,12.70
2017,07,31,04,20,12.60
2017,07,31,04,21,12.60
2017,07,31,04,22,12.60
2017,07,31,04,23,12.60
2017,07,31,04,24,12.60
2017,07,31,04,25,12.60
2017,07,31,04,26,12.60
2017,07,31,04,27,12.60
2017,07,31,04,28,12.50
2017,07,31,04,29,12.50
2017,07,31,04,30,12.50
2017,07,31,04,31,12.50
2017,07,31,04,32,12.50
2017,07,31,04,33,12.50
2017,07,31,04,34,12.50
2017,07,31,04,35,12.50
2017,07,31,04,36,12.40
2017,07,31,04,37,12.40
2017,07,31,04,38,12.40
2017,07,31,04,39,12.40
2017,07,31,04,40,12.40
2017,07,31,04,41,12.40
2017,07,31,04,42,12.40
2017,07,31,04,43,12.40
2017,07,31,04,44,12.40
2017,07,31,04,45,12.30
2017,07,31,04,46,12.30
2017,07,31,04,47,12.30
2017,07,31,04,48,12.30
2017,07,31,04,49,12.30
2017,07,31,04,50,12.30
2017,07,31,04,51,12.30
2017,07,31,04,52,12.30
2017,07,31,04,53,12.30
2017,07,31,04,54,12.30
2017,07,31,04,55,12.30
2017,07,31,04,56,12.30
2017,07,31,04,57,12.30
2017,07,31,04,58,12.30
2017,07,31,04,59,12.30
2017,07,31,05,00,12.30
2017,07,31,05,01,12.30
2017,07,31,05,02,12.30
2017,07,31,05,03,12.30
2017,07,31,05,04,12.30
2017,07,31,05,05,12.30
2017,07,31,05,06,12.30
2017,07,31,05,07,12.30
2017,07,31,05,08,12.30
2017,07,31,05,09,12.30
2017,07,31,05,10,12.20
2017,07,31,05,11,12.20
2017,07,31,05,12,12.20
2017,07,31,05,13,12.20
2017,07,31,05,14,12.20
2017,07,31,05,15,12.20
2017,07,31,05,16,12.10
2017,07,31,05,17,12.10
2017,07,31,05,18,12.10
2017,07,31,05,19,12.10
2017,07,31,05,20,12.10
2017,07,31,05,21,12.10
2017,07,31,05,22,12.10
2017,07,31,05,23,12.10
2017,07,31,05,24,12.10
2017,07,31,05,25,12.10
2017,07,31,05,26,12.10
2017,07,31,05,27,12.10
2017,07,31,05,28,12.10
2017,07,31,05,29,12.10
2017,07,31,05,30,12.10
2017,07,31,05,31,12.10
2017,07,31,05,32,12.10
2017,07,31,05,33,12.00
2017,07,31,05,34,12.00
2017,07,31,05,35,12.00
2017,07,31,05,36,12.00
2017,07,31,05,37,12.00
2017,07,31,05,38,12.00
2017,07,31,05,39,12.00
2017,07,31,05,40,12.00
2017,07,31,05,41,12.00
2017,07,31,05,42,12.00
2017,07,31,05,43,12.00
2017,07,31,05,44,12.00
2017,07,31,05,45,12.00
2017,07,31,05,46,12.00
2017,07,31,05,47,12.00
2017,07,31,05,48,11.90
2017,07,31,05,49,11.90
2017,07,31,05,50,11.90
2017,07,31,05,51,11.90
2017,07,31,05,52,11.90
2017,07,31,05,53,11.90
2017,07,31,05,54,11.90
2017,07,31,05,55,11.90
2017,07,31,05,56,11.90
2017,07,31,05,57,11.90
2017,07,31,05,58,11.90
2017,07,31,05,59,11.90
2017,07,31,06,00,11.90
2017,07,31,06,01,11.90
2017,07,31,06,02,11.90
2017,07,31,06,03,11.90
2017,07,31,06,04,11.90
2017,07,31,06,05,11.90
2017,07,31,06,06,11.90
2017,07,31,06,07,12.00
2017,07,31,06,08,12.00
2017,07,31,06,09,12.00
2017,07,31,06,10,12.00
2017,07,31,06,11,12.00
2017,07,31,06,12,12.10
2017,07,31,06,13,12.10
2017,07,31,06,14,12.20
2017,07,31,06,15,12.20
2017,07,31,06,16,12.30
2017,07,31,06,17,12.30
2017,07,31,06,18,12.40
2017,07,31,06,19,12.50
2017,07,31,06,20,12.50
2017,07,31,06,21,12.60
2017,07,31,06,22,12.60
2017,07,31,06,23,12.60
2017,07,31,06,24,12.70
2017,07,31,06,25,12.70
2017,07,31,06,26,12.70
2017,07,31,06,27,12.70
2017,07,31,06,28,12.80
2017,07,31,06,29,12.80
2017,07,31,06,30,12.90
2017,07,31,06,31,12.90
2017,07,31,06,32,13.00
2017,07,31,06,33,13.10
2017,07,31,06,34,13.10
2017,07,31,06,35,13.20
2017,07,31,06,36,13.20
2017,07,31,06,37,13.30
2017,07,31,06,38,13.30
2017,07,31,06,39,13.40
2017,07,31,06,40,13.50
2017,07,31,06,41,13.50
2017,07,31,06,42,13.60
2017,07,31,06,43,13.70
2017,07,31,06,44,13.80
2017,07,31,06,45,13.90
2017,07,31,06,46,14.00
2017,07,31,06,47,14.10
2017,07,31,06,48,14.20
2017,07,31,06,49,14.20
2017,07,31,06,50,14.30
2017,07,31,06,51,14.40
2017,07,31,06,52,14.50
2017,07,31,06,53,14.60
2017,07,31,06,54,14.70
2017,07,31,06,55,14.80
2017,07,31,06,56,15.00
2017,07,31,06,57,15.10
2017,07,31,06,58,15.20
2017,07,31,06,59,15.30
2017,07,31,07,00,15.40
2017,07,31,07,01,15.50
2017,07,31,07,02,15.50
2017,07,31,07,03,15.60
2017,07,31,07,04,15.60
2017,07,31,07,05,15.70
2017,07,31,07,06,15.80
2017,07,31,07,07,15.80
2017,07,31,07,08,15.90
2017,07,31,07,09,16.00
2017,07,31,07,10,16.10
2017,07,31,07,11,16.10
2017,07,31,07,12,16.10
2017,07,31,07,13,16.20
2017,07,31,07,14,16.20
2017,07,31,07,15,16.30
2017,07,31,07,16,16.40
2017,07,31,07,17,16.40
2017,07,31,07,18,16.40
2017,07,31,07,19,16.50
2017,07,31,07,20,16.60
2017,07,31,07,21,16.60
2017,07,31,07,22,16.70
2017,07,31,07,23,16.80
2017,07,31,07,24,16.90
2017,07,31,07,25,17.00
2017,07,31,07,26,17.10
2017,07,31,07,27,17.20
2017,07,31,07,28,17.30
2017,07,31,07,29,17.40
2017,07,31,07,30,17.50
2017,07,31,07,31,17.60
2017,07,31,07,32,17.70
2017,07,31,07,33,17.80
2017,07,31,07,34,17.90
2017,07,31,07,35,17.90
2017,07,31,07,36,18.00
2017,07,31,07,37,18.10
2017,07,31,07,38,18.20
2017,07,31,07,39,18.20
2017,07,31,07,40,18.30
2017,07,31,07,41,18.40
2017,07,31,07,42,18.50
2017,07,31,07,43,18.60
2017,07,31,07,44,18.60
2017,07,31,07,45,18.60
2017,07,31,07,46,18.70
2017,07,31,07,47,18.70
2017,07,31,07,48,18.70
2017,07,31,07,49,18.80
2017,07,31,07,50,18.90
2017,07,31,07,51,18.90
2017,07,31,07,52,18.90
2017,07,31,07,53,18.90
2017,07,31,07,54,19.00
2017,07,31,07,55,19.10
2017,07,31,07,56,19.10
2017,07,31,07,57,19.10
2017,07,31,07,58,19.20
2017,07,31,07,59,19.30
2017,07,31,08,00,19.30
2017,07,31,08,01,19.40
2017,07,31,08,02,19.40
2017,07,31,08,03,19.40
2017,07,31,08,04,19.50
2017,07,31,08,05,19.50
2017,07,31,08,06,19.60
2017,07,31,08,07,19.70
2017,07,31,08,08,19.70
2017,07,31,08,09,19.80
2017,07,31,08,10,19.80
2017,07,31,08,11,19.90
2017,07,31,08,12,19.90
2017,07,31,08,13,20.00
2017,07,31,08,14,20.10
2017,07,31,08,15,20.10
2017,07,31,08,16,20.20
2017,07,31,08,17,20.20
2017,07,31,08,18,20.20
2017,07,31,08,19,20.20
2017,07,31,08,20,20.30
2017,07,31,08,21,20.30
2017,07,31,08,22,20.30
2017,07,31,08,23,20.40
2017,07,31,08,24,20.40
2017,07,31,08,25,20.50
2017,07,31,08,26,20.60
2017,07,31,08,27,20.60
2017,07,31,08,28,20.60
2017,07,31,08,29,20.70
2017,07,31,08,30,20.70
2017,07,31,08,31,20.70
2017,07,31,08,32,20.70
2017,07,31,08,33,20.80
2017,07,31,08,34,20.80
2017,07,31,08,35,20.80
2017,07,31,08,36,20.80
2017,07,31,08,37,20.80
2017,07,31,08,38,20.80
2017,07,31,08,39,20.80
2017,07,31,08,40,20.80
2017,07,31,08,41,20.80
2017,07,31,08,42,20.90
2017,07,31,08,43,20.90
2017,07,31,08,44,20.90
2017,07,31,08,45,20.90
2017,07,31,08,46,20.90
2017,07,31,08,47,21.00
2017,07,31,08,48,21.00
2017,07,31,08,49,21.00
2017,07,31,08,50,21.00
2017,07,31,08,51,21.00
2017,07,31,08,52,21.10
2017,07,31,08,53,21.20
2017,07,31,08,54,21.30
2017,07,31,08,55,21.30
2017,07,31,08,56,21.30
2017,07,31,08,57,21.30
2017,07,31,08,58,21.40
2017,07,31,08,59,21.40
2017,07,31,09,00,21.40
2017,07,31,09,01,21.30
2017,07,31,09,02,21.30
2017,07,31,09,03,21.30
2017,07,31,09,04,21.30
2017,07,31,09,05,21.30
2017,07,31,09,06,21.30
2017,07,31,09,07,21.40
2017,07,31,09,08,21.30
2017,07,31,09,09,21.30
2017,07,31,09,10,21.30
2017,07,31,09,11,21.30
2017,07,31,09,12,21.30
2017,07,31,09,13,21.30
2017,07,31,09,14,21.20
2017,07,31,09,15,21.20
2017,07,31,09,16,21.20
2017,07,31,09,17,21.20
2017,07,31,09,18,21.20
2017,07,31,09,19,21.30
2017,07,31,09,20,21.30
2017,07,31,09,21,21.30
2017,07,31,09,22,21.30
2017,07,31,09,23,21.30
2017,07,31,09,24,21.30
2017,07,31,09,25,21.30
2017,07,31,09,26,21.40
2017,07,31,09,27,21.40
2017,07,31,09,28,21.40
2017,07,31,09,29,21.50
2017,07,31,09,30,21.50
2017,07,31,09,31,21.40
2017,07,31,09,32,21.30
2017,07,31,09,33,21.30
2017,07,31,09,34,21.30
2017,07,31,09,35,21.30
2017,07,31,09,36,21.40
2017,07,31,09,37,21.40
2017,07,31,09,38,21.50
2017,07,31,09,39,21.60
2017,07,31,09,40,21.60
2017,07,31,09,41,21.60
2017,07,31,09,42,21.60
2017,07,31,09,43,21.70
2017,07,31,09,44,21.70
2017,07,31,09,45,21.70
2017,07,31,09,46,21.70
2017,07,31,09,47,21.70
2017,07,31,09,48,21.80
2017,07,31,09,49,21.80
2017,07,31,09,50,21.90
2017,07,31,09,51,21.90
2017,07,31,09,52,22.00
2017,07,31,09,53,22.00
2017,07,31,09,54,22.00
2017,07,31,09,55,22.00
2017,07,31,09,56,22.10
2017,07,31,09,57,22.10
2017,07,31,09,58,22.10
2017,07,31,09,59,22.10
2017,07,31,10,00,22.20
2017,07,31,10,01,22.20
2017,07,31,10,02,22.20
2017,07,31,10,03,22.30
2017,07,31,10,04,22.30
2017,07,31,10,05,22.40
2017,07,31,10,06,22.40
2017,07,31,10,07,22.40
2017,07,31,10,08,22.40
2017,07,31,10,09,22.40
2017,07,31,10,10,22.30
2017,07,31,10,11,22.20
2017,07,31,10,12,22.20
2017,07,31,10,13,22.10
2017,07,31,10,14,22.00
2017,07,31,10,15,22.00
2017,07,31,10,16,21.90
2017,07,31,10,17,21.90
2017,07,31,10,18,21.80
2017,07,31,10,19,21.80
2017,07,31,10,20,21.80
2017,07,31,10,21,21.70
2017,07,31,10,22,21.70
2017,07,31,10,23,21.70
2017,07,31,10,24,21.60
2017,07,31,10,25,21.60
2017,07,31,10,26,21.60
2017,07,31,10,27,21.60
2017,07,31,10,28,21.60
2017,07,31,10,29,21.60
2017,07,31,10,30,21.70
2017,07,31,10,31,21.80
2017,07,31,10,32,21.80
2017,07,31,10,33,21.80
2017,07,31,10,34,21.80
2017,07,31,10,35,21.80
2017,07,31,10,36,21.80
2017,07,31,10,37,21.90
2017,07,31,10,38,21.90
2017,07,31,10,39,21.90
2017,07,31,10,40,21.80
2017,07,31,10,41,21.80
2017,07,31,10,42,21.80
2017,07,31,10,43,21.80
2017,07,31,10,44,21.90
2017,07,31,10,45,21.90
2017,07,31,10,46,22.00
2017,07,31,10,47,22.00
2017,07,31,10,48,22.00
2017,07,31,10,49,22.10
2017,07,31,10,50,22.10
2017,07,31,10,51,22.10
2017,07,31,10,52,22.10
2017,07,31,10,53,22.10
2017,07,31,10,54,22.10
2017,07,31,10,55,22.10
2017,07,31,10,56,22.10
2017,07,31,10,57,22.20
2017,07,31,10,58,22.20
2017,07,31,10,59,22.30
2017,07,31,11,00,22.30
2017,07,31,11,01,22.30
2017,07,31,11,02,22.30
2017,07,31,11,03,22.30
2017,07,31,11,04,22.20
2017,07,31,11,05,22.20
2017,07,31,11,06,22.20
2017,07,31,11,07,22.20
2017,07,31,11,08,22.20
2017,07,31,11,09,22.20
2017,07,31,11,10,22.30
2017,07,31,11,11,22.20
2017,07,31,11,12,22.20
2017,07,31,11,13,22.20
2017,07,31,11,14,22.20
2017,07,31,11,15,22.20
2017,07,31,11,16,22.20
2017,07,31,11,17,22.20
2017,07,31,11,18,22.30
2017,07,31,11,19,22.30
2017,07,31,11,20,22.30
2017,07,31,11,21,22.40
2017,07,31,11,22,22.40
2017,07,31,11,23,22.50
2017,07,31,11,24,22.60
2017,07,31,11,25,22.60
2017,07,31,11,26,22.60
2017,07,31,11,27,22.60
2017,07,31,11,28,22.60
2017,07,31,11,29,22.70
2017,07,31,11,30,22.70
2017,07,31,11,31,22.70
2017,07,31,11,32,22.80
2017,07,31,11,33,22.80
2017,07,31,11,34,22.80
2017,07,31,11,35,22.90
2017,07,31,11,36,22.90
2017,07,31,11,37,22.90
2017,07,31,11,38,22.90
2017,07,31,11,39,22.90
2017,07,31,11,40,22.90
2017,07,31,11,41,22.90
2017,07,31,11,42,22.90
2017,07,31,11,43,22.80
2017,07,31,11,44,22.80
2017,07,31,11,45,22.80
2017,07,31,11,46,22.70
2017,07,31,11,47,22.70
2017,07,31,11,48,22.70
2017,07,31,11,49,22.70
2017,07,31,11,50,22.80
2017,07,31,11,51,22.80
2017,07,31,11,52,22.80
2017,07,31,11,53,22.80
2017,07,31,11,54,22.80
2017,07,31,11,55,22.80
2017,07,31,11,56,22.90
2017,07,31,11,57,22.90
2017,07,31,11,58,22.90
2017,07,31,11,59,22.90
2017,07,31,12,00,22.90
2017,07,31,12,01,22.90
2017,07,31,12,02,22.90
2017,07,31,12,03,22.90
2017,07,31,12,04,22.90
2017,07,31,12,05,22.90
2017,07,31,12,06,22.90
2017,07,31,12,07,22.90
2017,07,31,12,08,22.90
2017,07,31,12,09,22.90
2017,07,31,12,10,22.90
2017,07,31,12,11,22.90
2017,07,31,12,12,22.90
2017,07,31,12,13,22.90
2017,07,31,12,14,22.90
2017,07,31,12,15,22.90
2017,07,31,12,16,22.90
2017,07,31,12,17,22.90
2017,07,31,12,18,22.90
2017,07,31,12,19,22.90
2017,07,31,12,20,22.90
2017,07,31,12,21,22.90
2017,07,31,12,22,22.90
2017,07,31,12,23,22.90
2017,07,31,12,24,23.00
2017,07,31,12,25,23.10
2017,07,31,12,26,23.20
2017,07,31,12,27,23.20
2017,07,31,12,28,23.30
2017,07,31,12,29,23.30
2017,07,31,12,30,23.30
2017,07,31,12,31,23.40
2017,07,31,12,32,23.50
2017,07,31,12,33,23.60
2017,07,31,12,34,23.60
2017,07,31,12,35,23.70
2017,07,31,12,36,23.70
2017,07,31,12,37,23.80
2017,07,31,12,38,23.90
2017,07,31,12,39,24.00
2017,07,31,12,40,24.10
2017,07,31,12,41,24.10
2017,07,31,12,42,24.10
2017,07,31,12,43,24.20
2017,07,31,12,44,24.20
2017,07,31,12,45,24.20
2017,07,31,12,46,24.30
2017,07,31,12,47,24.20
2017,07,31,12,48,24.20
2017,07,31,12,49,24.30
2017,07,31,12,50,24.30
2017,07,31,12,51,24.30
2017,07,31,12,52,24.20
2017,07,31,12,53,24.20
2017,07,31,12,54,24.10
2017,07,31,12,55,24.10
2017,07,31,12,56,24.10
2017,07,31,12,57,24.10
2017,07,31,12,58,24.10
2017,07,31,12,59,24.10
2017,07,31,13,00,24.10
2017,07,31,13,01,24.10
2017,07,31,13,02,24.10
2017,07,31,13,03,24.10
2017,07,31,13,04,24.10
2017,07,31,13,05,24.10
2017,07,31,13,06,24.20
2017,07,31,13,07,24.20
2017,07,31,13,08,24.20
2017,07,31,13,09,24.20
2017,07,31,13,10,24.20
2017,07,31,13,11,24.30
2017,07,31,13,12,24.30
2017,07,31,13,13,24.30
2017,07,31,13,14,24.30
2017,07,31,13,15,24.40
2017,07,31,13,16,24.50
2017,07,31,13,17,24.50
2017,07,31,13,18,24.60
2017,07,31,13,19,24.70
2017,07,31,13,20,24.70
2017,07,31,13,21,24.70
2017,07,31,13,22,24.70
2017,07,31,13,23,24.70
2017,07,31,13,24,24.70
2017,07,31,13,25,24.80
2017,07,31,13,26,24.80
2017,07,31,13,27,24.90
2017,07,31,13,28,25.00
2017,07,31,13,29,25.00
2017,07,31,13,30,25.10
2017,07,31,13,31,25.10
2017,07,31,13,32,25.00
2017,07,31,13,33,24.90
2017,07,31,13,34,24.90
2017,07,31,13,35,24.80
2017,07,31,13,36,24.80
2017,07,31,13,37,24.80
2017,07,31,13,38,24.80
2017,07,31,13,39,24.80
2017,07,31,13,40,24.80
2017,07,31,13,41,24.70
2017,07,31,13,42,24.70
2017,07,31,13,43,24.70
2017,07,31,13,44,24.70
2017,07,31,13,45,24.70
2017,07,31,13,46,24.70
2017,07,31,13,47,24.70
2017,07,31,13,48,24.70
2017,07,31,13,49,24.70
2017,07,31,13,50,24.70
2017,07,31,13,51,24.70
2017,07,31,13,52,24.70
2017,07,31,13,53,24.80
2017,07,31,13,54,24.80
2017,07,31,13,55,24.80
2017,07,31,13,56,24.90
2017,07,31,13,57,24.90
2017,07,31,13,58,25.00
2017,07,31,13,59,25.10
2017,07,31,14,00,25.10
2017,07,31,14,01,25.20
2017,07,31,14,02,25.30
2017,07,31,14,03,25.30
2017,07,31,14,04,25.30
2017,07,31,14,05,25.40
2017,07,31,14,06,25.40
2017,07,31,14,07,25.50
2017,07,31,14,08,25.60
2017,07,31,14,09,25.60
2017,07,31,14,10,25.60
2017,07,31,14,11,25.60
2017,07,31,14,12,25.60
2017,07,31,14,13,25.40
2017,07,31,14,14,25.40
2017,07,31,14,15,25.40
2017,07,31,14,16,25.30
2017,07,31,14,17,25.30
2017,07,31,14,18,25.30
2017,07,31,14,19,25.30
2017,07,31,14,20,25.20
2017,07,31,14,21,25.20
2017,07,31,14,22,25.20
2017,07,31,14,23,25.20
2017,07,31,14,24,25.20
2017,07,31,14,25,25.30
2017,07,31,14,26,25.30
2017,07,31,14,27,25.30
2017,07,31,14,28,25.30
2017,07,31,14,29,25.40
2017,07,31,14,30,25.40
2017,07,31,14,31,25.40
2017,07,31,14,32,25.40
2017,07,31,14,33,25.50
2017,07,31,14,34,25.60
2017,07,31,14,35,25.60
2017,07,31,14,36,25.70
2017,07,31,14,37,25.80
2017,07,31,14,38,25.80
2017,07,31,14,39,25.80
2017,07,31,14,40,25.80
2017,07,31,14,41,25.80
2017,07,31,14,42,25.80
2017,07,31,14,43,25.70
2017,07,31,14,44,25.70
2017,07,31,14,45,25.70
2017,07,31,14,46,25.70
2017,07,31,14,47,25.70
2017,07,31,14,48,25.70
2017,07,31,14,49,25.60
2017,07,31,14,50,25.50
2017,07,31,14,51,25.50
2017,07,31,14,52,25.50
2017,07,31,14,53,25.60
2017,07,31,14,54,25.60
2017,07,31,14,55,25.70
2017,07,31,14,56,25.80
2017,07,31,14,57,25.90
2017,07,31,14,58,26.00
2017,07,31,14,59,26.10
2017,07,31,15,00,26.10
2017,07,31,15,01,26.10
2017,07,31,15,02,26.10
2017,07,31,15,03,26.00
2017,07,31,15,04,26.10
2017,07,31,15,05,26.10
2017,07,31,15,06,26.10
2017,07,31,15,07,26.20
2017,07,31,15,08,26.20
2017,07,31,15,09,26.20
2017,07,31,15,10,26.30
2017,07,31,15,11,26.30
2017,07,31,15,12,26.30
2017,07,31,15,13,26.30
2017,07,31,15,14,26.40
2017,07,31,15,15,26.40
2017,07,31,15,16,26.60
2017,07,31,15,17,26.60
2017,07,31,15,18,26.60
2017,07,31,15,19,26.60
2017,07,31,15,20,26.60
2017,07,31,15,21,26.60
2017,07,31,15,22,26.50
2017,07,31,15,23,26.40
2017,07,31,15,24,26.40
2017,07,31,15,25,26.40
2017,07,31,15,26,26.40
2017,07,31,15,27,26.40
2017,07,31,15,28,26.30
2017,07,31,15,29,26.30
2017,07,31,15,30,26.40
2017,07,31,15,31,26.50
2017,07,31,15,32,26.60
2017,07,31,15,33,26.60
2017,07,31,15,34,26.60
2017,07,31,15,35,26.70
2017,07,31,15,36,26.70
2017,07,31,15,37,26.80
2017,07,31,15,38,26.90
2017,07,31,15,39,27.00
2017,07,31,15,40,27.10
2017,07,31,15,41,27.20
2017,07,31,15,42,27.30
2017,07,31,15,43,27.30
2017,07,31,15,44,27.20
2017,07,31,15,45,27.00
2017,07,31,15,46,26.90
2017,07,31,15,47,26.80
2017,07,31,15,48,26.90
2017,07,31,15,49,26.90
2017,07,31,15,50,26.90
2017,07,31,15,51,27.00
2017,07,31,15,52,27.10
2017,07,31,15,53,27.10
2017,07,31,15,54,27.10
2017,07,31,15,55,27.00
2017,07,31,15,56,26.80
2017,07,31,15,57,26.80
2017,07,31,15,58,26.70
2017,07,31,15,59,26.60
2017,07,31,16,00,26.60
2017,07,31,16,01,26.50
2017,07,31,16,02,26.40
2017,07,31,16,03,26.40
2017,07,31,16,04,26.40
2017,07,31,16,05,26.40
2017,07,31,16,06,26.30
2017,07,31,16,07,26.20
2017,07,31,16,08,26.20
2017,07,31,16,09,26.10
2017,07,31,16,10,26.00
2017,07,31,16,11,26.00
2017,07,31,16,12,26.00
2017,07,31,16,13,26.00
2017,07,31,16,14,25.90
2017,07,31,16,15,25.90
2017,07,31,16,16,25.90
2017,07,31,16,17,25.90
2017,07,31,16,18,25.90
2017,07,31,16,19,26.00
2017,07,31,16,20,26.10
2017,07,31,16,21,26.10
2017,07,31,16,22,26.10
2017,07,31,16,23,26.00
2017,07,31,16,24,26.00
2017,07,31,16,25,25.90
2017,07,31,16,26,25.80
2017,07,31,16,27,25.70
2017,07,31,16,28,25.70
2017,07,31,16,29,25.80
2017,07,31,16,30,25.80
2017,07,31,16,31,25.70
2017,07,31,16,32,25.80
2017,07,31,16,33,25.80
2017,07,31,16,34,25.80
2017,07,31,16,35,25.90
2017,07,31,16,36,26.00
2017,07,31,16,37,26.10
2017,07,31,16,38,26.30
2017,07,31,16,39,26.40
2017,07,31,16,40,26.50
2017,07,31,16,41,26.60
2017,07,31,16,42,26.60
2017,07,31,16,43,26.70
2017,07,31,16,44,26.70
2017,07,31,16,45,26.60
2017,07,31,16,46,26.60
2017,07,31,16,47,26.60
2017,07,31,16,48,26.70
2017,07,31,16,49,26.80
2017,07,31,16,50,26.90
2017,07,31,16,51,27.10
2017,07,31,16,52,27.20
2017,07,31,16,53,27.30
2017,07,31,16,54,27.30
2017,07,31,16,55,27.40
2017,07,31,16,56,27.40
2017,07,31,16,57,27.40
2017,07,31,16,58,27.50
2017,07,31,16,59,27.60
2017,07,31,17,00,27.60
2017,07,31,17,01,27.70
2017,07,31,17,02,27.80
2017,07,31,17,03,27.80
2017,07,31,17,04,27.80
2017,07,31,17,05,27.90
2017,07,31,17,06,27.90
2017,07,31,17,07,27.90
2017,07,31,17,08,27.70
2017,07,31,17,09,27.60
2017,07,31,17,10,27.60
2017,07,31,17,11,27.50
2017,07,31,17,12,27.40
2017,07,31,17,13,27.40
2017,07,31,17,14,27.30
2017,07,31,17,15,27.30
2017,07,31,17,16,27.30
2017,07,31,17,17,27.20
2017,07,31,17,18,27.20
2017,07,31,17,19,27.10